N5YHF Weather Reports


Display with metric or nautical units.
time (UTC)temp
F
wind
direction
speed
MPH
gust
MPH
rain 1hr
in
rain 24hr
in
rain mn
in
humidity
%
barometer
mb
20260506113519 75 141 1.0 3.0 0.00 0.00 0.00 87 1008.2
20260506112524 75 165 1.0 4.0 0.00 0.00 0.00 87 1008.4
20260506111531 75 148 1.0 3.0 0.00 0.00 0.00 87 1008.4
20260506110521 75 167 1.0 4.0 0.00 0.00 0.00 87 1008.3
20260506105530 75 128 1.0 4.0 0.00 0.00 0.00 87 1008.3
20260506104520 75 152 1.0 3.0 0.00 0.00 0.00 87 1008.2
20260506103531 75 128 0.0 2.0 0.00 0.00 0.00 87 1007.9
20260506102519 75 160 1.0 3.0 0.00 0.00 0.00 87 1008.0
20260506101527 75 162 1.0 3.0 0.00 0.00 0.00 87 1008.1
20260506100534 75 174 1.0 2.0 0.00 0.00 0.00 87 1007.8
20260506095527 75 154 0.0 2.0 0.00 0.00 0.00 87 1007.5
20260506094534 75 173 2.0 11.0 0.00 0.00 0.00 87 1007.5
20260506093525 75 170 1.0 5.0 0.00 0.00 0.00 87 1007.4
20260506092616 75 175 2.0 5.0 0.00 0.00 0.00 87 1007.2
20260506091606 75 159 2.0 7.0 0.00 0.00 0.00 87 1007.0
20260506090517 75 164 1.0 5.0 0.00 0.00 0.00 87 1006.9
20260506085526 75 173 2.0 7.0 0.00 0.00 0.00 87 1006.9
20260506084535 75 167 2.0 6.0 0.00 0.00 0.00 87 1007.0
20260506083036 75 175 2.0 6.0 0.00 0.00 0.00 87 1007.0
20260506082025 76 182 3.0 9.0 0.00 0.00 0.00 87 1006.8
20260506081035 76 181 2.0 9.0 0.00 0.00 0.00 86 1007.1
20260506073047 76 178 3.0 7.0 0.00 0.00 0.00 86 1007.4
20260506072017 76 182 2.0 7.0 0.00 0.00 0.00 85 1007.4
20260506071026 76 181 4.0 13.0 0.00 0.00 0.00 85 1007.4
20260506062034 76 181 3.0 9.0 0.00 0.00 0.00 86 1007.5
20260506061021 76 172 3.0 8.0 0.00 0.00 0.00 86 1007.3
20260506051031 76 169 2.0 7.0 0.00 0.00 0.00 85 1007.5
20260506045028 76 155 2.0 6.0 0.00 0.00 0.00 85 1007.5
20260506044017 76 184 4.0 8.0 0.00 0.00 0.00 85 1007.5
20260506043027 77 177 3.0 6.0 0.00 0.00 0.00 85 1007.2
20260506042035 77 153 3.0 6.0 0.00 0.00 0.00 84 1007.3
20260506041023 77 148 3.0 7.0 0.00 0.00 0.00 84 1007.2
20260506040051 77 161 2.0 6.0 0.00 0.00 0.00 83 1007.3
20260506035017 77 169 3.0 9.0 0.00 0.00 0.00 83 1006.8
20260506034022 78 165 2.0 7.0 0.00 0.00 0.00 83 1006.9
20260506033031 78 171 3.0 7.0 0.00 0.00 0.00 82 1006.8
20260506032206 78 141 2.0 6.0 0.00 0.00 0.00 82 1006.8
20260506031029 78 154 3.0 8.0 0.00 0.00 0.00 81 1006.8
20260506030035 78 163 3.0 7.0 0.00 0.00 0.00 80 1006.7
20260506025024 79 179 3.0 6.0 0.00 0.00 0.00 79 1006.4
20260506024030 79 158 2.0 6.0 0.00 0.00 0.00 78 1006.2
20260506023016 79 149 3.0 7.0 0.00 0.00 0.00 76 1005.9
20260506022024 80 164 2.0 4.0 0.00 0.00 0.00 76 1005.9
20260506021035 80 158 1.0 4.0 0.00 0.00 0.00 76 1005.7
20260506020018 80 146 3.0 6.0 0.00 0.00 0.00 75 1005.4
20260506015025 80 144 1.0 6.0 0.00 0.00 0.00 74 1005.4
20260506014034 80 146 2.0 5.0 0.00 0.00 0.00 74 1005.3
20260506013021 81 156 2.0 5.0 0.00 0.00 0.00 73 1005.3
20260506012032 81 163 2.0 6.0 0.00 0.00 0.00 73 1005.3
20260506011020 81 162 3.0 6.0 0.00 0.00 0.00 72 1005.5
20260506010027 82 126 2.0 4.0 0.00 0.00 0.00 71 1005.1
20260506005035 82 138 2.0 4.0 0.00 0.00 0.00 70 1005.5
20260506004023 83 151 1.0 4.0 0.00 0.00 0.00 70 1005.3
20260506003057 83 158 2.0 5.0 0.00 0.00 0.00 69 1005.3
20260506002024 83 162 2.0 4.0 0.00 0.00 0.00 68 1005.4
20260506001028 83 156 1.0 4.0 0.00 0.00 0.00 67 1005.1
20260506000036 83 144 1.0 5.0 0.00 0.00 0.00 67 1005.1
20260505235024 83 169 2.0 9.0 0.00 0.00 0.00 66 1005.1
20260505234035 83 154 2.0 7.0 0.00 0.00 0.00 66 1005.0
20260505233042 83 171 3.0 7.0 0.00 0.00 0.00 66 1004.8
20260505232029 84 173 2.0 8.0 0.00 0.00 0.00 66 1004.8
20260505231037 84 171 2.0 7.0 0.00 0.00 0.00 67 1005.0
20260505230024 84 158 3.0 6.0 0.00 0.00 0.00 66 1004.8
20260505225034 84 170 2.0 6.0 0.00 0.00 0.00 66 1004.8
20260505224044 84 165 3.0 10.0 0.00 0.00 0.00 65 1004.6
20260505223033 85 179 3.0 7.0 0.00 0.00 0.00 64 1004.7
20260505222021 85 180 2.0 6.0 0.00 0.00 0.00 63 1004.6
20260505221030 85 165 1.0 6.0 0.00 0.00 0.00 64 1004.9
20260505220018 84 179 3.0 9.0 0.00 0.00 0.00 63 1004.9
20260505215025 84 167 3.0 7.0 0.00 0.00 0.00 64 1005.2
20260505214035 84 187 3.0 9.0 0.00 0.00 0.00 64 1005.2
20260505213025 84 146 4.0 13.0 0.00 0.00 0.00 65 1005.2
20260505212035 84 180 4.0 9.0 0.00 0.00 0.00 64 1005.5
20260505211024 85 172 4.0 8.0 0.00 0.00 0.00 64 1005.5
20260505210033 84 181 3.0 9.0 0.00 0.00 0.00 65 1005.8
20260505205021 84 178 3.0 9.0 0.00 0.00 0.00 66 1005.7
20260505204031 83 181 4.0 9.0 0.00 0.00 0.00 67 1005.8
20260505203041 83 167 4.0 11.0 0.00 0.00 0.00 66 1005.9
20260505202029 83 182 4.0 12.0 0.00 0.00 0.00 68 1006.1
20260505201018 83 192 4.0 9.0 0.00 0.00 0.00 67 1006.3
20260505200530 83 178 4.0 9.0 0.00 0.00 0.00 68 1006.6
20260505195539 83 176 3.0 8.0 0.00 0.00 0.00 69 1006.5
20260505194526 82 159 1.0 5.0 0.00 0.00 0.00 71 1006.8
20260505193537 81 157 3.0 10.0 0.00 0.00 0.00 71 1006.8
20260505192525 81 177 3.0 10.0 0.00 0.00 0.00 70 1006.8
20260505191534 82 171 3.0 7.0 0.00 0.00 0.00 71 1006.8
20260505190523 81 170 2.0 7.0 0.00 0.00 0.00 72 1007.0
20260505185533 81 171 3.0 5.0 0.00 0.00 0.00 73 1006.8
20260505184523 80 157 2.0 6.0 0.00 0.00 0.00 73 1007.2
20260505183533 79 156 3.0 7.0 0.00 0.00 0.00 75 1007.3
20260505182521 79 173 4.0 8.0 0.00 0.00 0.00 74 1007.5
20260505181531 79 167 2.0 10.0 0.00 0.00 0.00 75 1007.4
20260505180520 78 154 2.0 6.0 0.00 0.00 0.00 76 1007.5
20260505175550 77 168 2.0 6.0 0.00 0.00 0.00 77 1007.7
20260505174540 77 176 2.0 6.0 0.00 0.00 0.00 77 1007.8